Simultaneous Nadir Overpasses (SNOs) Predictions

Prediction of SNOs between METOP-A and TERRA Satellite Orbit:

Table of predicted SNOs for the next 14.0 days since TLE Epoch: 3/31/2012
Index Date (METOP-A) Time (METOP-A) METOP-A Lat,Lon Date (TERRA) Time (TERRA) TERRA Lat,Lon Distance(km) Time Diff (sec)
1 04/02/2012 21:35:22 81.30, -96.94 04/02/2012 21:36:32 81.30, -97.08 2.30 70
2 04/02/2012 22:26:02 -81.30, 70.68 04/02/2012 22:25:58 -81.31, 70.81 2.32 4
3 04/05/2012 17:09:44 81.29, -30.86 04/05/2012 17:10:44 81.29, -30.77 1.59 60
4 04/05/2012 18:00:23 -81.30, 137.15 04/05/2012 18:00:10 -81.30, 137.14 0.27 13
5 04/08/2012 12:44:04 81.30, 35.91 04/08/2012 12:44:55 81.29, 35.80 1.81 51
6 04/08/2012 13:34:44 -81.30,-156.47 04/08/2012 13:34:22 -81.29,-156.64 3.06 22
7 04/11/2012 08:18:24
